Location: Bonnesvalyn
(49.1218°N, 3.3177°E)
Time: 05:44:12
(UTC+00:00)

Cosmos 2058 - Visible Passes

Search period start: 19 April 2024 00:00
Search period end: 29 April 2024 00:00
Orbit: 547 x 568 km, 82.5° (Epoch: 18 April)

Date Brightness Start Highest point End Pass type
(mag) Time Alt. Az. Time Alt. Az. Time Alt. Az.
19 Apr 5.0 19:46:07 10° NE 19:47:15 11° ENE 19:48:23 10° ENE visible
19 Apr 2.7 21:20:26 10° N 21:24:29 84° W 21:24:49 74° SSW visible
20 Apr 5.0 19:43:40 10° NE 19:45:25 12° ENE 19:47:11 10° E visible
20 Apr 2.9 21:18:32 10° NNW 21:22:34 73° W 21:23:12 58° SSW visible
21 Apr 4.8 19:41:24 10° NNE 19:43:35 14° ENE 19:45:42 10° E visible
21 Apr 3.1 21:16:38 10° NNW 21:20:37 63° W 21:21:36 46° SSW visible
22 Apr 4.7 19:39:12 10° NNE 19:41:43 16° ENE 19:44:06 10° ESE visible
22 Apr 3.4 21:14:44 10° NNW 21:18:40 54° W 21:19:59 36° SSW visible
23 Apr 4.6 19:37:02 10° NNE 19:39:50 18° ENE 19:42:30 10° ESE visible
23 Apr 3.6 21:12:49 10° NNW 21:16:42 46° W 21:18:24 28° SSW visible
24 Apr 4.4 19:34:54 10° NNE 19:37:56 20° ENE 19:40:56 10° ESE visible
24 Apr 3.9 21:10:55 10° NNW 21:14:42 40° W 21:16:49 22° SSW visible
25 Apr 4.2 19:32:47 10° NNE 19:36:00 23° ENE 19:39:13 10° ESE visible
25 Apr 4.2 21:09:01 10° NNW 21:12:42 35° W 21:15:15 17° SSW visible
26 Apr 4.1 19:30:41 10° NNE 19:34:04 25° ENE 19:37:27 10° SE visible
26 Apr 4.5 21:07:08 10° NNW 21:10:40 30° W 21:13:42 13° SSW visible
27 Apr 3.9 19:28:34 10° N 19:32:06 29° ENE 19:35:38 10° SE visible
27 Apr 4.7 21:05:14 10° NNW 21:08:38 27° W 21:12:01 10° SSW visible
28 Apr 3.7 19:26:28 10° N 19:30:08 33° ENE 19:33:47 10° SE visible
28 Apr 5.0 21:03:20 10° NW 21:06:34 23° W 21:09:47 10° SW visible
